Weather Roundup
Issued by NWS

Home | Current Version | Previous Version | Text Only | Print | Product List | Glossary On
Versions: 1 2 3 4 5 6 7 8 9 10 11 12 13 14 15 16 17 18 19 20 21 22 23 24 25 26 27 28 29 30 31 32 33 34 35 36 37 38 39 40 41 42 43 44 45 46 47 48 49 50
000
NZUS93 KARX 030859
HRRWXR

CURRENT HOURLY OBSERVATIONS ACROSS
MUCH OF THE UPPER MISSISSIPPI VALLEY
NATIONAL WEATHER SERVICE LA CROSSE WI
400 AM CDT WED JUN 03 2015


...SOUTHEAST MINNESOTA...


CITY           SKY/WX    TMP DP  RH WIND       PRES   REMARKS
ROCHESTER      PTCLDY    59  53  80 S14       29.95F
ROCHESTER/MAYO FAIR      59  54  83 SE8       29.93F
WINONA         CLEAR     59  52  77 SE5       29.96S
AUSTIN         PTCLDY    59  54  82 S12       29.93F
ALBERT LEA     PTCLDY    61  54  77 S13G18    29.91S
DODGE CENTER   PTCLDY    61  54  77 S17       29.92F
PRESTON        CLEAR     57  52  84 S10       29.97S
OWATONNA       CLEAR     61  54  77 S17       29.90S
FARIBAULT      MOCLDY    63  55  77 S10       29.91R
$$

...ELSEWHERE IN MINNESOTA...


CITY           SKY/WX    TMP DP  RH WIND       PRES   REMARKS
MINNEAPOLIS    CLOUDY    65  54  67 S13       29.89S
INTNL FALLS    CLOUDY    58  56  93 E3        29.81S
DULUTH         CLOUDY    55  45  68 SE6       29.87F
RED WING       PTCLDY    61  52  72 SE7       29.92S
REDWOOD FALLS  MOCLDY    65  56  72 S13       29.82S
MANKATO        CLOUDY    64  54  68 S13       29.88R
WORTHINGTON    CLOUDY    63  54  72 S16       29.85S
FAIRMONT       CLOUDY    63  52  67 S15G22    29.87S
$$

...SOUTHWEST WISCONSIN...


CITY           SKY/WX    TMP DP  RH WIND       PRES   REMARKS
LA CROSSE      CLEAR     59  50  72 SE6       29.97F
PRAIRIE DU CHI CLEAR     55  49  80 E3        30.00S
BOSCOBEL       CLEAR     52  49  89 CALM      30.02R
LONE ROCK      NOT AVBL
PLATTEVILLE    PTCLDY    57  49  74 SE7       30.02S
FORT MC COY    CLEAR     49  45  84 CALM      30.00S
VIROQUA        FAIR      57  48  72 S7        30.01S
WIS DELLS      CLEAR     54  45  71 SW3       30.02S
$$

...ELSEWHERE IN WISCONSIN...


CITY           SKY/WX    TMP DP  RH WIND       PRES   REMARKS
MILWAUKEE      MOCLDY    49  41  74 VRB3      30.08F
MADISON        PTCLDY    57  48  72 S9        30.04S
GREEN BAY      CLEAR     50  44  80 S6        30.06S
EAU CLAIRE     NOT AVBL
BLACK RVR FLS  FAIR      46  46 100 CALM      29.98S
MEDFORD        PTCLDY    51  46  81 SE7       30.00S
WAUSAU         CLEAR     53  46  77 S6        30.01S
WIS RAPIDS     CLEAR     53  44  71 S3        30.02F
MARSHFIELD     CLEAR     51  45  79 SE5       30.01R
RICE LAKE      CLEAR     58  49  72 SE9       29.94F
$$

...NORTHEAST IOWA...


CITY           SKY/WX    TMP DP  RH WIND       PRES   REMARKS
DECORAH        MOCLDY    57  54  88 S6        29.98F
MASON CITY     MOCLDY    60  55  83 S12       29.94F
CHARLES CITY   PTCLDY    59  57  94 S12       29.96F
OELWEIN          N/A     57  54  88 SE9       30.00S
$$

...ELSEWHERE IN IOWA...


CITY           SKY/WX    TMP DP  RH WIND       PRES   REMARKS
DES MOINES     MOCLDY    61  55  81 S8        29.94F
IOWA CITY      PTCLDY    57  54  89 CALM      30.01F
FORT DODGE     CLOUDY    63  54  72 S12G17    29.91S
$$

...NORTHERN ILLINOIS...


CITY           SKY/WX    TMP DP  RH WIND       PRES   REMARKS
CHICAGO-OHARE  MOCLDY    52  44  74 SE3       30.07S
CHICAGO-MIDWAY MOCLDY    56  50  80 CALM      30.08S
MOLINE         CLEAR     54  49  83 E6        30.01F
ROCKFORD       MOCLDY    55  48  77 S5        30.07S
PEORIA         PTCLDY    60  54  80 SE6       30.04S
$$

NOTE: "FAIR" INDICATES FEW OR NO CLOUDS BELOW 12,000 FEET WITH NO
SIGNIFICANT WEATHER AND/OR OBSTRUCTIONS TO VISIBILITY. WIND
SPEEDS ARE IN MILES-PER-HOUR.



USA.gov is the U.S. government's official web portal to all federal, state and local government web resources and services.